Погода в Гудермесе

Погода в Гудермесе : погода сейчас, прогноз погоды и архив. Всё, что Вы хотите узнать о погоде в Гудермесе!

Поиск расширенной информации на нашем сайте:

Полезная информация: освобождение от созависимости

Другие новости

Новости СМИ2

Главная страница сайта

Новости сайта

02.10.2013

Напоминаем, что на нашем новом сайте вы можете получить высокодетализированные прогнозы погоды по пунктам России, СНГ и мира (включающие важные для авиации метеовеличины, такие как направление и скорость ветра, видимость, явления погоды, количество и форма облачности, нижняя и верхняя граница облачности), а также ознакомиться с разнообразными материалами по авиационной метеорологии и подборкой полезных ссылок на эту тему.

Сайт Метеоцентр.Азия посвящён разработке технологий оптимизации авиаметеорологического обслуживания, включая проектирование и перспективное создание нескольких автоматизированных авиаметеорологических систем:
- система выпуска высокодетальных прогностических карт явлений погоды для нижнего воздушного пространства по России и ближнему зарубежью;
- система верификации прогнозов TAF (выпускаемых синоптиками официальных АМСГ РФ и ближнего зарубежья) и AUTOTAF (выпускаемых сайтом Метеоцентр.Азия) - выявление ошибок, онлайн-сопоставление с фактической погодой METAR, автоматическое внесение коррективов в прогнозы при резком отклонении фактической погоды от прогноза, подсчёт оправдываемости прогнозов по элементам и в целом;
- система обработки, анализа и отображения авиаметеорологической информации для применения провайдерами метеорологической информации.

Рекомендуем: Дешевая авиабилеты находится здесь.

Погода в Гудермесе - сегодня

Время (UTC), дата Ветер
(°,м/с) 
Видим.   Явления Облачность Т
(°С)
Тd
(°С)
f(%) Тe
(°С)
Pmin
(гПа)
dP
(гПа)
Po
(мм)
O2
(г/м3)
Тmin Tmax R s Состояние
почвы
06 24.02.17 270 (З) 4000 м  слаб. дождь  10/10 300 м 
[Ns]
+5.6 +0.5 70 +5  1017.8  3.2  756  299           
09 24.02.17 270 (З) 20000 м    9/6 1000 м средняя 
[Sc|Ac lent]
+12.4 +5 61 +14  1017  -0.6  756  291           
12 24.02.17 300 (СЗ) 20000 м    8/0 верхняя 
[Ci]
+16.7 +1.9 37 +18  1015.9  -0.9  755  286           
15 24.02.17 140 (ЮВ) 20000 м    8/0 средняя, верхняя 
[Ac lent|Ci fib]
+12.1 +3.2 54 +12  1016.4  0.4  755  291    +16.8  0.4     
18 24.02.17 тихо ()   10 км    ясно 
+7.1 +3 75 +7  1017.1  0.5  756  296           
21 24.02.17 260 (З) 10 км    ясно 
+5.7 +1.3 73 +7  1016.7  -0.4  756  298           
00 25.02.17 260 (З) 10 км    ясно 
+5.6 +0 67 +5  1016.7  0.1  756  298           
03 25.02.17 260 (З) 10 км    ясно 
+4.1 -0.2 74 +5  1016.7  755  300  +3.8         
06 25.02.17 270 (З) 20000 м    ясно 
+7.6 +0.7 62 +8  1017.2  0.6  756  296  +3.8         
09 25.02.17 100 (В) 20000 м    ясно 
+20.1 -0.2 26 +20  1014.4  -2.4  754  283           
12 25.02.17 100 (В) 20000 м    ясно 
+20.1 +1.4 29 +20  1011.8  -2.5  752  282           
15 25.02.17 090 (В) 20000 м    8/0 средняя 
[Ac As]
+13.8 +2.4 46 +14  1011.1  -0.9  752  288    +20.9       
18 25.02.17 тихо ()   10 км    ясно 
+7.9 +2.4 68 +8  1009.7  -1.6  750  293           
21 25.02.17 250 (З) 10 км    ясно 
+10.9 +2.1 55 +11  1008.3  -1.3  749  290           
00 26.02.17 230 (ЮЗ) 4{10}  10 км    3/0 средняя 
[Ac lent]
+9.5 +0.7 54 +9  1011.4  2.9  752  293           
03 26.02.17 250 (З) 10 км    8/0 средняя 
[Ac lent]
+8.8 +2.4 64 +8  1017.3  5.9  756  295  +6.9         
06 26.02.17 270 (З) 5{14}  20000 м    10/10 600 м 
[Sc]
+5.2 -0.2 68 +3  1023.9  6.3  761  301  +5.2         
09 26.02.17 280 (З) 3{10}  4000 м  слаб. дождь  10/10 300 м 
[Ns]
+2 -0.1 86 +1  1027.3  3.3  763  305           
12 26.02.17 250 (З) 20000 м  {дождь}  9/9 600 м 
[Sc]
+4.1 -5.1 51 +2  1027.9  0.6  764  304           
15 26.02.17 210 (ЮЗ) 20000 м    9/9 600 м 
[Sc]
+3.8 -4.5 55 +3  1027.9  -0.1  764  304    +9.1  0.3     
18 26.02.17 270 (З) 10 км    ясно 
+1 -4.3 68 1028.8  0.8  764  307           
21 26.02.17 230 (ЮЗ) 10 км    ясно 
+1.4 -6.1 57 +1  1028.4  -0.4  764  307           
00 27.02.17 280 (З) 10 км    ясно 
-2.2 -5.8 76 -4  1028.3  -0.2  764  311           
03 27.02.17 250 (З) 10 км    ясно 
-3 -5.9 80 -3  1028.3  764  312  -3.1         
06 27.02.17 270 (З) 20000 м    4/0 средняя 
[Ac lent]
+0.9 -4.7 66 +2  1027.5  -0.6  763  307  -3.2         
Время (UTC), дата Ветер
(°,м/с) 
Видим.   Явления Облачность Т
(°С)
Тd
(°С)
f(%) Тe
(°С)
Pmin
(гПа)
dP
(гПа)
Po
(мм)
O2
(г/м3)
Тmin Tmax R s Состояние
почвы

Для получения пояснительной информации подведите курсор к названию столбца.

ПОГОДА в Гудермесе - архив

Всё, что Вы хотите узнать о погоде в Гудермесе - удобно и подробно!

Выберите нужную дату (начиная с 1 января 2015* года) и нажмите кнопку "Найти".
Будут отображены архивные сводки погоды по пункту Гудермес, начиная с указанной даты.


Отображать данные в формате CSV (для использования в таблицах Excel)


Внимание! Наш архив погоды предназначен исключительно для личного некоммерческого использования в познавательных целях. Если Вам необходимы официальные справки о состоянии погоды (для производственных, юридических, коммерческих и т.п. целей), обращайтесь в органы Росгидромета.

*Примечание: данная дата относится к архиву по метеостанциям СССР (Россия, СНГ, Балтия).
Архив по метеостанциям Зарубежной Европы и Азии (кроме Китая) хранится 10 дней, по другим регионам земного шара (Китай, Африка, Америка, Австралия, Океания) - 1 день.

Гудермес - район местоположения метеостанции


Название, широта, долгота, высота метеостанции:
Гудермес 43.3°ш. 46.1°д. 75 м над ур. моря [Российская Федерация]

Дополнительная информация

В oтличие oт бoльшинства пoгoдных сайтoв мы публикуем пoдрoбную метеoинфoрмацию в детальнoм прoфессиoнальнoм фoрмате.

Характеристики температуры и влажнoсти вoздуха измеряются на высoте 2 м в тени вдали oт зданий и деревьев.
Скoрoсть ветра измеряется на высoте 10 м (на урoвне рoста челoвека скoрoсть ветра ниже в 1.5-2 раза). Если метеoстанция нахoдится в гoрoде или в лесу, тo скoрoсть ветра занижена на 2-4 м/с пo сравнению с oткрытым местoм. Скoрoсть ветра над акватoриями крупных рек и oзёр, а также на вершинах хoлмoв на 2-5 м/с выше, чем в oбычных услoвиях.
Атмoсфернoе давление в разных тoчках местнoсти мoжет значительнo oтличаться oт давления на метеoстанции, в зависимoсти oт услoвий рельефа (при пoдъёме на 10 м давление пoнижается примернo на 1 мм рт.ст.).